QPF
0.02 0.02 0.01 0.01 0.02 0.02 0.01 0.01 0.02 0.02 0.03 0.03 0.04 0.06 0.06 0.04 0.04 0.04 0.04 0.04 0.05 0.07 0.06 0.04 0.03 0.04 0.05 0.05 0.03 0.03 0.02 0.02 0.02 0.01 0.01 0.01 0.01 0.00 0.00 0.00 0.01 0.01 0.01 0.00
0.01 0.01 0.01 0.01 0.02 0.02 0.01 0.01 0.02 0.02 0.03 0.04 0.03 0.03 0.03 0.03 0.04 0.04 0.04 0.04 0.04 0.03 0.04 0.04 0.03 0.03 0.04 0.04 0.03 0.02 0.02 0.02 0.02 0.02 0.01 0.01 0.02 0.01 0.01 0.01 0.01 0.01 0.01 0.01
0.02 0.02 0.02 0.02 0.02 0.02 0.01 0.01 0.01 0.02 0.02 0.02 0.02 0.02 0.01 0.01 0.02 0.02 0.03 0.03 0.03 0.04 0.05 0.05 0.04 0.03 0.03 0.02 0.02 0.02 0.02 0.03 0.03 0.03 0.04 0.04 0.03 0.02 0.02 0.02 0.01 0.01 0.01 0.01
0.02 0.03 0.05 0.04 0.03 0.02 0.02 0.01 0.01 0.01 0.01 0.01 0.01 0.01 0.01 0.00 0.01 0.02 0.02 0.02 0.03 0.03 0.04 0.05 0.04 0.04 0.04 0.03 0.03 0.04 0.03 0.02 0.03 0.04 0.03 0.03 0.02 0.02 0.02 0.01 0.00 0.00 0.00 0.00
0.03 0.04 0.06 0.05 0.03 0.02 0.02 0.02 0.01 0.01 0.01 0.01 0.01 0.01 0.01 0.01 0.00 0.01 0.01 0.02 0.02 0.03 0.03 0.04 0.06 0.08 0.08 0.07 0.06 0.03 0.02 0.01 0.02 0.03 0.02 0.02 0.01 0.01 0.01 0.00 0.00 0.00 0.00 0.00
0.03 0.04 0.07 0.07 0.03 0.01 0.01 0.02 0.01 0.01 0.01 0.01 0.02 0.02 0.01 0.01 0.00 0.01 0.02 0.01 0.02 0.02 0.02 0.03 0.04 0.06 0.07 0.07 0.06 0.05 0.03 0.02 0.02 0.02 0.01 0.01 0.01 0.01 0.01 0.01 0.00 0.00 0.00 0.01
0.02 0.04 0.07 0.04 0.02 0.01 0.02 0.02 0.01 0.01 0.01 0.01 0.02 0.02 0.01 0.01 0.01 0.02 0.03 0.03 0.02 0.02 0.02 0.02 0.02 0.04 0.06 0.06 0.06 0.06 0.04 0.03 0.03 0.02 0.01 0.01 0.01 0.01 0.01 0.00 0.00 0.00 0.01 0.01
0.02 0.03 0.04 0.02 0.01 0.01 0.01 0.01 0.01 0.01 0.01 0.01 0.01 0.01 0.02 0.01 0.02 0.03 0.03 0.02 0.03 0.02 0.02 0.01 0.01 0.02 0.03 0.03 0.03 0.03 0.03 0.04 0.04 0.03 0.02 0.02 0.01 0.01 0.00 0.00 0.00 0.00 0.00 0.01
0.01 0.01 0.01 0.02 0.01 0.01 0.01 0.01 0.01 0.00 0.01 0.01 0.01 0.01 0.02 0.02 0.02 0.02 0.03 0.03 0.03 0.02 0.01 0.01 0.02 0.02 0.02 0.02 0.02 0.02 0.02 0.03 0.03 0.02 0.02 0.02 0.01 0.01 0.00 0.00 0.00 0.00 0.00 0.00
0.01 0.01 0.01 0.01 0.00 0.00 0.00 0.01 0.01 0.01 0.01 0.01 0.01 0.01 0.01 0.02 0.02 0.03 0.02 0.03 0.02 0.01 0.01 0.02 0.02 0.02 0.02 0.01 0.01 0.01 0.01 0.02 0.02 0.01 0.02 0.02 0.01 0.01 0.01 0.01 0.01 0.00 0.00 0.00
0.01 0.01 0.01 0.01 0.00 0.00 0.01 0.00 0.01 0.01 0.01 0.01 0.00 0.01 0.01 0.01 0.02 0.03 0.02 0.02 0.01 0.01 0.01 0.01 0.01 0.01 0.01 0.01 0.01 0.01 0.01 0.01 0.02 0.02 0.01 0.01 0.01 0.01 0.01 0.01 0.01 0.00 0.00 0.00
0.01 0.01 0.01 0.01 0.01 0.00 0.01 0.00 0.01 0.01 0.00 0.00 0.00 0.00 0.01 0.02 0.03 0.03 0.02 0.01 0.01 0.01 0.02 0.01 0.02 0.01 0.00 0.00 0.01 0.01 0.01 0.01 0.01 0.01 0.01 0.01 0.00 0.00 0.00 0.00 0.01 0.00 0.00 0.00
0.01 0.01 0.01 0.01 0.01 0.00 0.00 0.00 0.01 0.01 0.00 0.00 0.00 0.01 0.01 0.02 0.02 0.01 0.01 0.01 0.01 0.01 0.01 0.01 0.01 0.01 0.00 0.00 0.00 0.00 0.00 0.00 0.00 0.00 0.00 0.00 0.00 0.00 0.00 0.00 0.00 0.00 0.00 0.00
0.01 0.01 0.01 0.01 0.00 0.00 0.00 0.00 0.01 0.01 0.01 0.00 0.01 0.01 0.01 0.02 0.01 0.00 0.00 0.00 0.01 0.00 0.00 0.01 0.01 0.01 0.00 0.00 0.00 0.00 0.00 0.00 0.00 0.00 0.00 0.00 0.00 0.00 0.00 0.00 0.00 0.00 0.00 0.00
0.01 0.00 0.00 0.00 0.00 0.00 0.00 0.00 0.00 0.00 0.01 0.01 0.01 0.01 0.01 0.01 0.01 0.00 0.00 0.00 0.00 0.00 0.00 0.00 0.01 0.00 0.01 0.00 0.00 0.01 0.00 0.00 0.00 0.00 0.00 0.00 0.00 0.00 0.00 0.00 0.00 0.00 0.00 0.00
0.01 0.00 0.00 0.01 0.01 0.01 0.00 0.00 0.00 0.00 0.00 0.00 0.00 0.01 0.01 0.01 0.00 0.00 0.00 0.00 0.00 0.00 0.00 0.00 0.00 0.00 0.00 0.01 0.00 0.00 0.01 0.00 0.00 0.00 0.00 0.01 0.01 0.00 0.00 0.00 0.01 0.01 0.01 0.01
0.01 0.01 0.01 0.01 0.01 0.01 0.00 0.00 0.00 0.00 0.00 0.00 0.00 0.00 0.01 0.00 0.00 0.00 0.00 0.00 0.00 0.00 0.00 0.00 0.00 0.00 0.00 0.00 0.00 0.00 0.01 0.00 0.00 0.00 0.00 0.01 0.01 0.00 0.00 0.01 0.01 0.01 0.01 0.01
0.00 0.00 0.00 0.00 0.00 0.00 0.00 0.00 0.00 0.00 0.00 0.00 0.00 0.00 0.00 0.00 0.00 0.00 0.00 0.00 0.00 0.00 0.00 0.00 0.00 0.00 0.00 0.00 0.00 0.00 0.00 0.00 0.00 0.00 0.01 0.01 0.01 0.00 0.00 0.00 0.00 0.01 0.01 0.00
0.00 0.00 0.00 0.00 0.00 0.00 0.00 0.00 0.00 0.00 0.00 0.00 0.00 0.00 0.00 0.00 0.00 0.00 0.00 0.00 0.00 0.00 0.00 0.00 0.00 0.00 0.00 0.00 0.00 0.00 0.00 0.00 0.01 0.00 0.01 0.01 0.01 0.00 0.00 0.00 0.00 0.00 0.00 0.01
0.00 0.00 0.00 0.00 0.00 0.00 0.00 0.00 0.00 0.00 0.00 0.00 0.00 0.00 0.00 0.00 0.00 0.00 0.00 0.00 0.00 0.00 0.00 0.00 0.00 0.00 0.00 0.00 0.00 0.00 0.00 0.00 0.00 0.00 0.01 0.01 0.00 0.00 0.00 0.00 0.00 0.00 0.00 0.00
0.00 0.00 0.00 0.00 0.00 0.00 0.00 0.00 0.00 0.00 0.00 0.00 0.00 0.00 0.00 0.00 0.00 0.00 0.00 0.00 0.00 0.00 0.00 0.00 0.00 0.00 0.00 0.00 0.00 0.00 0.00 0.00 0.00 0.00 0.00 0.00 0.00 0.00 0.00 0.00 0.00 0.00 0.00 0.00
0.00 0.00 0.00 0.00 0.00 0.00 0.00 0.00 0.00 0.00 0.00 0.00 0.00 0.00 0.00 0.00 0.00 0.00 0.00 0.00 0.00 0.00 0.00 0.00 0.00 0.00 0.00 0.00 0.00 0.00 0.00 0.00 0.00 0.00 0.00 0.00 0.00 0.00 0.00 0.00 0.00 0.00 0.00 0.00
0.00 0.00 0.00 0.00 0.00 0.00 0.00 0.00 0.00 0.00 0.00 0.00 0.00 0.00 0.00 0.00 0.00 0.00 0.00 0.00 0.00 0.00 0.00 0.00 0.00 0.00 0.00 0.00 0.00 0.00 0.00 0.00 0.00 0.00 0.00 0.00 0.00 0.00 0.00 0.00 0.00 0.00 0.00 0.00
0.00 0.00 0.00 0.00 0.00 0.00 0.00 0.00 0.00 0.00 0.00 0.00 0.00 0.00 0.00 0.00 0.00 0.00 0.00 0.00 0.00 0.00 0.00 0.00 0.00 0.00 0.00 0.00 0.00 0.00 0.00 0.00 0.00 0.00 0.00 0.00 0.00 0.00 0.00 0.00 0.00 0.00 0.00 0.00
0.00 0.00 0.00 0.00 0.00 0.00 0.01 0.00 0.00 0.00 0.00 0.00 0.00 0.00 0.00 0.00 0.00 0.00 0.00 0.00 0.00 0.01 0.00 0.00 0.00 0.00 0.00 0.00 0.00 0.00 0.00 0.00 0.00 0.00 0.00 0.00 0.00 0.00 0.00 0.00 0.00 0.00 0.00 0.01
0.00 0.00 0.00 0.00 0.00 0.00 0.00 0.00 0.00 0.00 0.00 0.00 0.00 0.00 0.00 0.00 0.00 0.00 0.00 0.00 0.00 0.00 0.00 0.00 0.00 0.00 0.00 0.00 0.00 0.00 0.00 0.00 0.00 0.00 0.00 0.00 0.00 0.00 0.00 0.01 0.01 0.01 0.01 0.01
0.00 0.00 0.00 0.00 0.00 0.00 0.00 0.00 0.00 0.00 0.00 0.00 0.00 0.00 0.00 0.00 0.00 0.00 0.00 0.00 0.00 0.00 0.00 0.00 0.00 0.00 0.00 0.00 0.00 0.00 0.00 0.00 0.00 0.00 0.00 0.00 0.00 0.01 0.01 0.01 0.02 0.02 0.02 0.02
MSLP
1015.28 1015.62 1015.98 1016.38 1016.83 1017.30 1017.80 1018.30 1018.78 1019.23 1019.65 1020.06 1020.46 1020.87 1021.31 1021.78 1022.28 1022.79 1023.30 1023.76 1024.14 1024.43 1024.60 1024.67 1024.63 1024.51 1024.34 1024.14 1023.93 1023.74 1023.56 1023.40 1023.25 1023.09 1022.92 1022.70 1022.45 1022.14 1021.79 1021.38 1020.94 1020.46 1019.97 1019.48
1015.38 1015.73 1016.05 1016.38 1016.71 1017.07 1017.46 1017.87 1018.31 1018.78 1019.26 1019.77 1020.29 1020.82 1021.36 1021.90 1022.43 1022.92 1023.37 1023.75 1024.06 1024.28 1024.42 1024.48 1024.47 1024.40 1024.30 1024.16 1024.02 1023.87 1023.71 1023.56 1023.40 1023.22 1023.03 1022.82 1022.56 1022.27 1021.93 1021.55 1021.12 1020.65 1020.14 1019.62
1015.59 1015.91 1016.17 1016.41 1016.64 1016.89 1017.17 1017.50 1017.90 1018.37 1018.90 1019.48 1020.10 1020.73 1021.35 1021.94 1022.48 1022.95 1023.35 1023.67 1023.92 1024.09 1024.20 1024.26 1024.28 1024.27 1024.22 1024.16 1024.06 1023.95 1023.82 1023.66 1023.49 1023.31 1023.10 1022.89 1022.65 1022.38 1022.08 1021.73 1021.34 1020.89 1020.40 1019.88
1015.88 1016.14 1016.33 1016.48 1016.59 1016.73 1016.91 1017.16 1017.51 1017.97 1018.52 1019.16 1019.85 1020.55 1021.24 1021.87 1022.42 1022.89 1023.26 1023.53 1023.73 1023.87 1023.97 1024.04 1024.09 1024.12 1024.13 1024.11 1024.06 1023.97 1023.84 1023.69 1023.50 1023.30 1023.09 1022.88 1022.66 1022.44 1022.19 1021.90 1021.57 1021.17 1020.72 1020.22
1016.18 1016.36 1016.47 1016.51 1016.53 1016.56 1016.64 1016.82 1017.12 1017.55 1018.11 1018.78 1019.52 1020.28 1021.01 1021.69 1022.27 1022.74 1023.10 1023.36 1023.54 1023.68 1023.77 1023.86 1023.93 1023.99 1024.03 1024.04 1024.01 1023.93 1023.80 1023.62 1023.42 1023.20 1022.99 1022.79 1022.60 1022.42 1022.24 1022.03 1021.77 1021.46 1021.07 1020.62
1016.36 1016.47 1016.50 1016.46 1016.39 1016.34 1016.34 1016.46 1016.71 1017.12 1017.68 1018.37 1019.14 1019.94 1020.72 1021.43 1022.04 1022.54 1022.91 1023.18 1023.37 1023.51 1023.62 1023.72 1023.81 1023.89 1023.95 1023.97 1023.94 1023.84 1023.69 1023.50 1023.27 1023.04 1022.82 1022.63 1022.48 1022.35 1022.23 1022.10 1021.94 1021.71 1021.41 1021.03
1016.32 1016.38 1016.36 1016.27 1016.15 1016.05 1016.01 1016.09 1016.31 1016.71 1017.26 1017.96 1018.75 1019.58 1020.40 1021.15 1021.80 1022.32 1022.73 1023.03 1023.24 1023.40 1023.53 1023.64 1023.74 1023.83 1023.89 1023.90 1023.86 1023.75 1023.57 1023.35 1023.10 1022.85 1022.63 1022.45 1022.32 1022.24 1022.19 1022.13 1022.06 1021.92 1021.71 1021.41
1016.02 1016.06 1016.02 1015.92 1015.80 1015.69 1015.65 1015.73 1015.95 1016.35 1016.91 1017.61 1018.42 1019.27 1020.11 1020.88 1021.57 1022.13 1022.57 1022.90 1023.14 1023.32 1023.47 1023.60 1023.71 1023.80 1023.85 1023.86 1023.80 1023.67 1023.47 1023.23 1022.96 1022.69 1022.46 1022.29 1022.17 1022.12 1022.12 1022.13 1022.12 1022.07 1021.94 1021.73
1015.47 1015.52 1015.51 1015.44 1015.36 1015.30 1015.30 1015.41 1015.67 1016.08 1016.66 1017.37 1018.18 1019.04 1019.89 1020.68 1021.38 1021.97 1022.43 1022.79 1023.06 1023.26 1023.43 1023.56 1023.68 1023.77 1023.83 1023.83 1023.76 1023.62 1023.41 1023.16 1022.87 1022.60 1022.36 1022.18 1022.07 1022.03 1022.04 1022.09 1022.13 1022.14 1022.08 1021.94
1014.75 1014.83 1014.88 1014.89 1014.90 1014.92 1015.01 1015.19 1015.50 1015.96 1016.55 1017.27 1018.08 1018.93 1019.76 1020.55 1021.24 1021.83 1022.30 1022.67 1022.96 1023.17 1023.35 1023.50 1023.63 1023.72 1023.78 1023.78 1023.72 1023.59 1023.39 1023.13 1022.85 1022.57 1022.32 1022.13 1022.01 1021.96 1021.96 1022.01 1022.07 1022.11 1022.09 1022.01
1013.95 1014.10 1014.23 1014.34 1014.46 1014.60 1014.80 1015.07 1015.46 1015.96 1016.58 1017.30 1018.09 1018.92 1019.72 1020.47 1021.14 1021.70 1022.16 1022.52 1022.80 1023.03 1023.21 1023.36 1023.50 1023.61 1023.68 1023.71 1023.66 1023.55 1023.38 1023.14 1022.87 1022.60 1022.34 1022.13 1021.98 1021.89 1021.87 1021.89 1021.94 1021.97 1021.97 1021.92
1013.20 1013.41 1013.63 1013.86 1014.10 1014.37 1014.68 1015.06 1015.52 1016.07 1016.71 1017.43 1018.19 1018.97 1019.72 1020.42 1021.04 1021.56 1021.98 1022.32 1022.58 1022.79 1022.97 1023.13 1023.28 1023.41 1023.50 1023.56 1023.55 1023.48 1023.34 1023.14 1022.89 1022.63 1022.37 1022.14 1021.95 1021.82 1021.75 1021.72 1021.73 1021.74 1021.73 1021.69
1012.55 1012.83 1013.14 1013.47 1013.83 1014.21 1014.63 1015.10 1015.63 1016.23 1016.88 1017.58 1018.30 1019.03 1019.72 1020.35 1020.90 1021.37 1021.75 1022.05 1022.28 1022.48 1022.65 1022.81 1022.96 1023.11 1023.23 1023.32 1023.36 1023.33 1023.24 1023.08 1022.87 1022.63 1022.37 1022.12 1021.89 1021.72 1021.58 1021.50 1021.45 1021.42 1021.39 1021.34
1012.04 1012.37 1012.75 1013.17 1013.63 1014.11 1014.62 1015.16 1015.74 1016.36 1017.01 1017.69 1018.37 1019.04 1019.67 1020.23 1020.72 1021.13 1021.46 1021.72 1021.93 1022.10 1022.26 1022.41 1022.57 1022.73 1022.87 1023.00 1023.08 1023.10 1023.06 1022.95 1022.78 1022.56 1022.30 1022.04 1021.79 1021.56 1021.37 1021.23 1021.12 1021.04 1020.98 1020.92
1011.64 1012.01 1012.45 1012.94 1013.46 1014.01 1014.58 1015.17 1015.78 1016.41 1017.05 1017.70 1018.35 1018.96 1019.53 1020.04 1020.48 1020.85 1021.14 1021.36 1021.54 1021.69 1021.84 1021.98 1022.13 1022.30 1022.46 1022.60 1022.72 1022.78 1022.79 1022.72 1022.59 1022.40 1022.16 1021.89 1021.62 1021.36 1021.13 1020.93 1020.77 1020.65 1020.56 1020.48
1011.31 1011.72 1012.19 1012.72 1013.29 1013.88 1014.48 1015.09 1015.70 1016.33 1016.96 1017.58 1018.19 1018.76 1019.30 1019.77 1020.18 1020.52 1020.78 1020.99 1021.15 1021.28 1021.41 1021.54 1021.69 1021.85 1022.01 1022.17 1022.31 1022.40 1022.44 1022.42 1022.32 1022.16 1021.94 1021.69 1021.41 1021.13 1020.87 1020.63 1020.44 1020.28 1020.15 1020.05
1011.01 1011.44 1011.95 1012.50 1013.09 1013.68 1014.29 1014.89 1015.49 1016.10 1016.71 1017.30 1017.89 1018.44 1018.96 1019.42 1019.81 1020.14 1020.40 1020.60 1020.76 1020.89 1021.00 1021.12 1021.25 1021.40 1021.56 1021.71 1021.86 1021.97 1022.04 1022.04 1021.98 1021.86 1021.67 1021.43 1021.16 1020.88 1020.60 1020.34 1020.12 1019.93 1019.78 1019.66
1010.73 1011.19 1011.71 1012.27 1012.85 1013.43 1014.01 1014.59 1015.17 1015.75 1016.32 1016.90 1017.46 1018.01 1018.52 1018.98 1019.39 1019.73 1020.00 1020.21 1020.37 1020.49 1020.60 1020.71 1020.82 1020.95 1021.09 1021.24 1021.38 1021.50 1021.59 1021.62 1021.59 1021.50 1021.34 1021.13 1020.88 1020.60 1020.32 1020.05 1019.81 1019.60 1019.43 1019.28
1010.49 1010.97 1011.50 1012.05 1012.61 1013.16 1013.70 1014.23 1014.76 1015.30 1015.85 1016.40 1016.95 1017.48 1018.00 1018.47 1018.90 1019.25 1019.55 1019.77 1019.95 1020.08 1020.18 1020.27 1020.37 1020.48 1020.60 1020.74 1020.87 1021.00 1021.09 1021.14 1021.14 1021.08 1020.95 1020.77 1020.54 1020.28 1020.01 1019.74 1019.48 1019.25 1019.05 1018.88
1010.34 1010.84 1011.36 1011.89 1012.41 1012.91 1013.40 1013.87 1014.35 1014.83 1015.33 1015.85 1016.38 1016.91 1017.42 1017.90 1018.34 1018.72 1019.03 1019.27 1019.45 1019.58 1019.68 1019.77 1019.85 1019.95 1020.05 1020.17 1020.30 1020.43 1020.53 1020.60 1020.62 1020.59 1020.49 1020.34 1020.13 1019.89 1019.63 1019.35 1019.08 1018.83 1018.60 1018.40
1010.32 1010.83 1011.34 1011.84 1012.31 1012.75 1013.16 1013.57 1013.98 1014.40 1014.85 1015.32 1015.81 1016.31 1016.81 1017.29 1017.72 1018.10 1018.42 1018.67 1018.86 1018.99 1019.09 1019.16 1019.24 1019.32 1019.41 1019.52 1019.65 1019.77 1019.88 1019.97 1020.01 1020.00 1019.93 1019.80 1019.61 1019.38 1019.12 1018.84 1018.56 1018.29 1018.03 1017.79
1010.46 1010.97 1011.46 1011.91 1012.32 1012.70 1013.04 1013.37 1013.70 1014.05 1014.43 1014.84 1015.28 1015.74 1016.21 1016.65 1017.07 1017.43 1017.74 1017.98 1018.16 1018.28 1018.37 1018.44 1018.51 1018.58 1018.67 1018.77 1018.89 1019.02 1019.14 1019.23 1019.29 1019.29 1019.24 1019.12 1018.95 1018.73 1018.47 1018.18 1017.89 1017.59 1017.31 1017.04
1010.76 1011.25 1011.71 1012.11 1012.46 1012.76 1013.03 1013.28 1013.54 1013.81 1014.12 1014.46 1014.84 1015.24 1015.64 1016.04 1016.41 1016.74 1017.01 1017.22 1017.38 1017.49 1017.57 1017.63 1017.68 1017.75 1017.83 1017.93 1018.05 1018.18 1018.30 1018.39 1018.45 1018.46 1018.42 1018.31 1018.14 1017.92 1017.65 1017.36 1017.06 1016.75 1016.45 1016.16
1011.16 1011.63 1012.05 1012.40 1012.69 1012.93 1013.13 1013.31 1013.49 1013.69 1013.92 1014.19 1014.49 1014.82 1015.16 1015.49 1015.79 1016.06 1016.29 1016.46 1016.58 1016.67 1016.72 1016.77 1016.81 1016.87 1016.95 1017.04 1017.16 1017.28 1017.39 1017.48 1017.53 1017.54 1017.48 1017.37 1017.19 1016.97 1016.70 1016.40 1016.10 1015.78 1015.48 1015.19
1011.59 1012.03 1012.41 1012.72 1012.96 1013.14 1013.28 1013.40 1013.52 1013.66 1013.83 1014.03 1014.26 1014.51 1014.77 1015.03 1015.26 1015.46 1015.63 1015.75 1015.83 1015.88 1015.92 1015.94 1015.97 1016.02 1016.09 1016.17 1016.27 1016.38 1016.47 1016.54 1016.57 1016.55 1016.48 1016.35 1016.16 1015.93 1015.66 1015.37 1015.06 1014.77 1014.48 1014.21
1011.96 1012.37 1012.71 1012.98 1013.18 1013.32 1013.42 1013.51 1013.59 1013.69 1013.81 1013.96 1014.12 1014.31 1014.50 1014.68 1014.85 1014.98 1015.09 1015.16 1015.20 1015.21 1015.22 1015.23 1015.24 1015.27 1015.32 1015.39 1015.47 1015.54 1015.60 1015.63 1015.63 1015.57 1015.47 1015.31 1015.11 1014.86 1014.60 1014.32 1014.03 1013.76 1013.51 1013.28
1012.19 1012.57 1012.88 1013.12 1013.29 1013.41 1013.50 1013.57 1013.64 1013.72 1013.81 1013.93 1014.05 1014.19 1014.32 1014.45 1014.55 1014.63 1014.68 1014.71 1014.71 1014.70 1014.68 1014.67 1014.67 1014.68 1014.71 1014.74 1014.78 1014.82 1014.83 1014.82 1014.76 1014.66 1014.52 1014.33 1014.10 1013.85 1013.58 1013.32 1013.06 1012.83 1012.62 1012.44
Thickness
5696 5701 5702 5700 5701 5702 5693 5684 5671 5671 5669 5669 5668 5664 5659 5653 5647 5642 5637 5633 5627 5622 5617 5613 5610 5608 5605 5602 5598 5595 5591 5587 5584 5581 5578 5576 5573 5571 5569 5567 5565 5563 5561 5560
5690 5700 5700 5696 5699 5700 5695 5690 5680 5674 5668 5673 5668 5661 5653 5648 5643 5637 5632 5628 5623 5618 5613 5609 5606 5603 5600 5596 5593 5590 5586 5583 5580 5577 5574 5572 5569 5567 5564 5562 5560 5558 5556 5555
5674 5689 5691 5678 5689 5691 5689 5689 5681 5669 5668 5667 5659 5654 5648 5644 5640 5634 5629 5624 5619 5615 5610 5606 5602 5599 5595 5592 5589 5585 5582 5579 5576 5574 5571 5568 5566 5563 5560 5558 5555 5553 5552 5551
5669 5674 5662 5678 5698 5697 5688 5683 5683 5677 5670 5665 5659 5653 5647 5642 5636 5630 5626 5620 5615 5610 5606 5601 5598 5595 5592 5589 5585 5582 5579 5576 5573 5570 5567 5565 5562 5560 5557 5555 5553 5551 5550 5549
5662 5659 5664 5682 5693 5693 5681 5673 5679 5672 5665 5659 5653 5645 5638 5637 5634 5628 5622 5616 5610 5606 5602 5598 5594 5591 5588 5585 5581 5578 5575 5573 5570 5568 5565 5563 5560 5557 5555 5553 5551 5550 5549 5548
5663 5657 5654 5673 5695 5701 5685 5663 5675 5670 5661 5654 5647 5633 5631 5633 5629 5623 5617 5611 5606 5601 5597 5593 5590 5588 5584 5581 5578 5575 5573 5570 5569 5566 5564 5561 5559 5557 5555 5553 5551 5550 5549 5548
5661 5656 5663 5686 5697 5695 5665 5661 5673 5669 5661 5653 5645 5640 5637 5631 5625 5619 5613 5608 5603 5598 5594 5591 5588 5585 5580 5578 5575 5574 5572 5569 5567 5565 5563 5561 5559 5557 5555 5553 5551 5549 5548 5548
5660 5652 5659 5691 5690 5679 5673 5677 5674 5666 5660 5653 5646 5641 5635 5629 5621 5615 5610 5605 5600 5595 5591 5588 5586 5582 5578 5575 5575 5574 5571 5568 5565 5564 5563 5562 5559 5557 5555 5553 5551 5549 5548 5548
5669 5667 5682 5691 5690 5688 5684 5676 5671 5664 5659 5653 5644 5637 5631 5625 5618 5613 5608 5603 5599 5594 5590 5586 5583 5581 5577 5575 5574 5572 5569 5566 5564 5564 5563 5561 5559 5557 5555 5553 5550 5549 5548 5547
5676 5680 5686 5688 5688 5686 5684 5678 5672 5666 5659 5652 5643 5636 5629 5622 5616 5611 5607 5602 5598 5594 5589 5585 5583 5581 5579 5577 5574 5572 5568 5566 5564 5563 5562 5561 5559 5557 5555 5554 5552 5551 5550 5549
5676 5681 5682 5684 5685 5684 5681 5677 5670 5664 5658 5651 5643 5635 5628 5621 5615 5610 5606 5602 5599 5594 5590 5587 5584 5582 5580 5578 5575 5571 5569 5566 5565 5563 5562 5560 5559 5558 5558 5557 5556 5554 5553 5552
5675 5683 5680 5679 5683 5684 5678 5672 5668 5661 5655 5650 5644 5636 5629 5622 5616 5612 5607 5603 5599 5595 5592 5588 5586 5583 5582 5580 5577 5573 5569 5567 5566 5564 5563 5561 5560 5560 5562 5561 5561 5560 5559 5558
5695 5694 5689 5687 5685 5683 5677 5673 5668 5662 5656 5649 5644 5638 5631 5623 5618 5614 5609 5605 5602 5598 5594 5591 5588 5586 5584 5582 5579 5576 5572 5570 5568 5567 5565 5564 5562 5561 5561 5563 5564 5564 5564 5563
5701 5696 5686 5684 5682 5682 5678 5673 5668 5663 5657 5651 5645 5638 5632 5625 5620 5615 5612 5609 5605 5601 5598 5594 5591 5588 5587 5585 5582 5579 5576 5574 5572 5570 5568 5567 5566 5565 5564 5563 5563 5564 5567 5568
5699 5696 5690 5686 5683 5680 5677 5671 5664 5658 5654 5649 5645 5639 5633 5627 5622 5618 5615 5612 5608 5604 5601 5597 5594 5592 5591 5588 5585 5582 5579 5577 5576 5574 5573 5571 5571 5569 5568 5567 5566 5567 5568 5571
5696 5693 5689 5684 5681 5678 5674 5669 5663 5658 5654 5650 5645 5640 5636 5631 5626 5622 5618 5615 5610 5606 5603 5601 5598 5596 5594 5591 5588 5585 5583 5583 5581 5578 5577 5576 5574 5573 5572 5571 5571 5571 5571 5573
5691 5686 5684 5681 5680 5677 5674 5671 5666 5662 5657 5652 5647 5643 5638 5632 5627 5623 5620 5617 5614 5610 5608 5605 5602 5601 5599 5596 5592 5589 5587 5586 5586 5583 5581 5580 5579 5578 5577 5576 5576 5576 5577 5580
5701 5696 5693 5689 5684 5680 5676 5674 5669 5664 5659 5655 5651 5645 5639 5634 5629 5626 5623 5620 5616 5613 5611 5609 5608 5605 5603 5600 5597 5594 5592 5590 5588 5586 5586 5585 5584 5584 5583 5582 5582 5582 5583 5584
5702 5698 5695 5692 5689 5684 5680 5675 5671 5667 5663 5658 5652 5646 5642 5638 5634 5630 5626 5622 5619 5615 5615 5614 5612 5609 5606 5605 5602 5599 5596 5594 5592 5591 5590 5590 5589 5588 5588 5587 5587 5588 5588 5589
5702 5700 5697 5694 5691 5686 5681 5678 5673 5668 5664 5660 5654 5648 5643 5640 5637 5633 5629 5625 5624 5623 5622 5619 5616 5613 5611 5609 5607 5604 5601 5599 5597 5595 5594 5593 5592 5592 5593 5593 5593 5593 5594 5594
5702 5700 5697 5693 5690 5687 5684 5680 5675 5669 5666 5662 5656 5651 5647 5644 5641 5637 5631 5628 5629 5629 5626 5623 5620 5617 5616 5614 5611 5608 5606 5603 5602 5600 5599 5598 5597 5597 5597 5598 5598 5599 5600 5600
5702 5699 5696 5693 5689 5685 5683 5680 5676 5672 5667 5663 5659 5655 5650 5646 5643 5640 5637 5636 5635 5633 5630 5627 5624 5623 5620 5617 5614 5612 5610 5609 5607 5606 5604 5603 5602 5602 5602 5603 5603 5604 5605 5605
5700 5698 5695 5692 5688 5684 5682 5679 5677 5673 5668 5665 5661 5657 5653 5650 5647 5642 5639 5640 5639 5637 5634 5631 5630 5627 5624 5620 5617 5615 5614 5612 5611 5610 5610 5609 5608 5607 5607 5608 5608 5608 5608 5608
5698 5696 5694 5691 5687 5682 5678 5676 5675 5673 5671 5668 5665 5662 5658 5652 5649 5649 5648 5647 5644 5640 5637 5636 5633 5630 5626 5623 5621 5619 5617 5616 5615 5614 5613 5613 5612 5612 5611 5611 5612 5612 5612 5612
5697 5694 5691 5687 5683 5680 5678 5676 5674 5672 5669 5667 5665 5663 5661 5658 5654 5653 5651 5649 5646 5642 5639 5638 5635 5632 5628 5626 5624 5622 5621 5620 5619 5617 5616 5615 5614 5614 5614 5614 5614 5614 5614 5614
5694 5691 5689 5687 5685 5681 5679 5676 5672 5670 5668 5665 5664 5663 5662 5660 5658 5655 5653 5651 5648 5644 5642 5640 5637 5633 5630 5628 5626 5625 5624 5623 5621 5620 5619 5618 5617 5616 5616 5615 5615 5615 5614 5614
5691 5689 5686 5683 5682 5682 5679 5676 5673 5670 5669 5666 5664 5663 5662 5660 5658 5656 5653 5651 5648 5645 5643 5641 5638 5635 5632 5630 5628 5627 5626 5625 5624 5622 5621 5619 5618 5617 5616 5615 5615 5614 5613 5613